Time,TemperatureF,DewpointF,PressureIn,WindDirection,WindDirectionDegrees,WindSpeedMPH,WindSpeedGustMPH,Humidity,HourlyPrecipIn,Conditions,Clouds,dailyrainin,SolarRadiationWatts/m^2,SoftwareType,DateUTC
2013-09-20 00:00:00,62.6,61.7,29.97,West,270,0.0,0.0,97,0.00,CLR,,0.00,0.0,WeatherDisplay:10.37,2013-09-19 14:00:00,
2013-09-20 00:05:00,62.2,61.7,29.97,West,270,0.0,0.0,98,0.00,CLR,,0.00,0.0,WeatherDisplay:10.37,2013-09-19 14:05:00,
2013-09-20 00:10:00,62.1,61.5,29.96,West,270,0.0,0.0,98,0.00,CLR,,0.00,0.0,WeatherDisplay:10.37,2013-09-19 14:10:00,
2013-09-20 00:15:00,62.0,61.5,29.96,West,270,0.0,0.0,98,0.00,CLR,,0.00,0.0,WeatherDisplay:10.37,2013-09-19 14:15:00,
2013-09-20 00:20:00,61.6,61.0,29.96,West,270,0.0,0.0,98,0.00,CLR,,0.00,0.0,WeatherDisplay:10.37,2013-09-19 14:20:00,
2013-09-20 00:25:00,61.7,61.1,29.96,West,270,0.0,0.0,98,0.00,CLR,,0.00,0.0,WeatherDisplay:10.37,2013-09-19 14:25:00,
2013-09-20 00:30:00,61.7,61.1,29.96,West,270,0.0,0.0,98,0.00,CLR,,0.00,0.0,WeatherDisplay:10.37,2013-09-19 14:30:00,
2013-09-20 00:35:00,61.7,61.1,29.95,West,270,0.0,1.0,98,0.00,CLR,,0.00,0.0,WeatherDisplay:10.37,2013-09-19 14:35:00,
2013-09-20 00:40:00,61.5,61.0,29.95,West,270,0.0,0.0,98,0.00,CLR,,0.00,0.0,WeatherDisplay:10.37,2013-09-19 14:40:00,
2013-09-20 00:45:00,61.3,60.8,29.95,West,270,0.0,0.0,98,0.00,CLR,,0.00,0.0,WeatherDisplay:10.37,2013-09-19 14:45:00,
2013-09-20 00:50:00,61.2,60.6,29.95,West,270,0.0,0.0,98,0.00,CLR,,0.00,0.0,WeatherDisplay:10.37,2013-09-19 14:50:00,
2013-09-20 00:55:00,61.2,60.6,29.95,West,270,0.0,0.0,98,0.00,CLR,,0.00,0.0,WeatherDisplay:10.37,2013-09-19 14:55:00,
2013-09-20 01:00:00,61.2,60.6,29.94,West,270,0.0,0.0,98,0.00,CLR,,0.00,0.0,WeatherDisplay:10.37,2013-09-19 15:00:00,
2013-09-20 01:05:00,60.8,60.3,29.93,West,270,0.0,0.0,98,0.00,CLR,,0.00,0.0,WeatherDisplay:10.37,2013-09-19 15:05:00,
2013-09-20 01:10:00,60.5,60.3,29.93,WNW,296,1.0,3.0,99,0.00,CLR,,0.00,0.0,WeatherDisplay:10.37,2013-09-19 15:10:00,
2013-09-20 01:15:00,59.9,59.7,29.93,NW,310,0.0,2.0,99,0.00,CLR,,0.00,0.0,WeatherDisplay:10.37,2013-09-19 15:15:00,
2013-09-20 01:20:00,59.5,59.3,29.92,West,281,0.0,1.0,99,0.00,CLR,,0.00,0.0,WeatherDisplay:10.37,2013-09-19 15:20:00,
2013-09-20 01:25:00,59.7,59.4,29.93,West,270,2.0,3.0,99,0.00,CLR,,0.00,0.0,WeatherDisplay:10.37,2013-09-19 15:25:00,
2013-09-20 01:30:00,59.7,59.4,29.93,West,270,0.0,3.0,99,0.00,CLR,,0.00,0.0,WeatherDisplay:10.37,2013-09-19 15:30:00,
2013-09-20 01:35:00,59.7,59.4,29.93,West,270,2.0,3.0,99,0.00,CLR,,0.00,0.0,WeatherDisplay:10.37,2013-09-19 15:35:00,
2013-09-20 01:40:00,60.1,59.8,29.93,West,270,1.0,3.0,99,0.00,CLR,,0.00,0.0,WeatherDisplay:10.37,2013-09-19 15:40:00,
2013-09-20 01:45:00,60.0,59.7,29.93,West,270,1.0,3.0,99,0.00,CLR,,0.00,0.0,WeatherDisplay:10.37,2013-09-19 15:45:00,
2013-09-20 01:50:00,59.9,59.6,29.93,West,270,1.0,2.0,99,0.00,CLR,,0.00,0.0,WeatherDisplay:10.37,2013-09-19 15:50:00,
2013-09-20 01:55:00,59.9,59.6,29.93,West,270,1.0,2.0,99,0.00,CLR,,0.00,0.0,WeatherDisplay:10.37,2013-09-19 15:55:00,
2013-09-20 02:00:00,59.9,59.6,29.93,West,270,0.0,2.0,99,0.00,CLR,,0.00,0.0,WeatherDisplay:10.37,2013-09-19 16:00:00,
2013-09-20 02:05:00,59.7,59.4,29.93,West,270,0.0,2.0,99,0.00,CLR,,0.00,0.0,WeatherDisplay:10.37,2013-09-19 16:05:00,
2013-09-20 02:10:00,59.4,59.1,29.93,West,270,2.0,3.0,99,0.00,CLR,,0.00,0.0,WeatherDisplay:10.37,2013-09-19 16:10:00,
2013-09-20 02:15:00,59.0,58.7,29.94,West,270,3.0,6.0,99,0.00,CLR,,0.00,0.0,WeatherDisplay:10.37,2013-09-19 16:15:00,
2013-09-20 02:20:00,58.7,58.4,29.94,West,270,5.0,7.0,99,0.00,CLR,,0.00,0.0,WeatherDisplay:10.37,2013-09-19 16:20:00,
2013-09-20 02:25:00,59.0,58.7,29.93,West,270,1.0,7.0,99,0.00,CLR,,0.00,0.0,WeatherDisplay:10.37,2013-09-19 16:25:00,
2013-09-20 02:30:00,59.4,59.1,29.92,WSW,247,1.0,3.0,99,0.00,CLR,,0.00,0.0,WeatherDisplay:10.37,2013-09-19 16:30:00,
2013-09-20 02:35:00,59.1,58.9,29.93,SSW,193,2.0,3.0,99,0.00,CLR,,0.00,0.0,WeatherDisplay:10.37,2013-09-19 16:35:00,
2013-09-20 02:40:00,59.3,59.0,29.93,South,180,2.0,4.0,99,0.00,CLR,,0.00,0.0,WeatherDisplay:10.37,2013-09-19 16:40:00,
2013-09-20 02:45:00,59.2,58.9,29.92,SSE,164,1.0,3.0,99,0.00,CLR,,0.00,0.0,WeatherDisplay:10.37,2013-09-19 16:45:00,
2013-09-20 02:50:00,59.0,58.7,29.92,SSE,149,0.0,2.0,99,0.00,CLR,,0.00,0.0,WeatherDisplay:10.37,2013-09-19 16:50:00,
2013-09-20 02:55:00,58.6,58.4,29.92,South,175,1.0,2.0,99,0.00,CLR,,0.00,0.0,WeatherDisplay:10.37,2013-09-19 16:55:00,
2013-09-20 03:00:00,58.3,58.0,29.92,SSE,156,2.0,3.0,99,0.00,CLR,,0.00,0.0,WeatherDisplay:10.37,2013-09-19 17:00:00,
2013-09-20 03:05:00,58.0,57.7,29.92,SSE,168,2.0,3.0,99,0.00,CLR,,0.00,0.0,WeatherDisplay:10.37,2013-09-19 17:05:00,
2013-09-20 03:10:00,57.8,57.5,29.92,South,176,0.0,3.0,99,0.00,CLR,,0.00,0.0,WeatherDisplay:10.37,2013-09-19 17:10:00,
2013-09-20 03:15:00,57.6,57.3,29.92,South,188,1.0,2.0,99,0.00,CLR,,0.00,0.0,WeatherDisplay:10.37,2013-09-19 17:15:00,
2013-09-20 03:20:00,57.4,57.1,29.92,SSW,198,0.0,2.0,99,0.00,CLR,,0.00,0.0,WeatherDisplay:10.37,2013-09-19 17:20:00,
2013-09-20 03:25:00,57.2,56.9,29.92,South,190,1.0,2.0,99,0.00,CLR,,0.00,0.0,WeatherDisplay:10.37,2013-09-19 17:25:00,
2013-09-20 03:30:00,57.4,57.1,29.92,SSW,210,0.0,2.0,99,0.00,CLR,,0.00,0.0,WeatherDisplay:10.37,2013-09-19 17:30:00,
2013-09-20 03:35:00,57.2,56.9,29.92,SW,225,0.0,2.0,99,0.00,CLR,,0.00,0.0,WeatherDisplay:10.37,2013-09-19 17:35:00,
2013-09-20 03:40:00,56.8,56.6,29.92,SW,225,1.0,2.0,99,0.00,CLR,,0.00,0.0,WeatherDisplay:10.37,2013-09-19 17:40:00,
2013-09-20 03:45:00,56.8,56.6,29.92,SW,225,1.0,2.0,99,0.00,CLR,,0.00,0.0,WeatherDisplay:10.37,2013-09-19 17:45:00,
2013-09-20 03:50:00,57.0,56.7,29.92,SW,225,0.0,1.0,99,0.00,CLR,,0.00,0.0,WeatherDisplay:10.37,2013-09-19 17:50:00,
2013-09-20 03:55:00,56.8,56.6,29.92,SW,225,0.0,1.0,99,0.00,CLR,,0.00,0.0,WeatherDisplay:10.37,2013-09-19 17:55:00,
2013-09-20 04:00:00,56.7,56.4,29.92,SW,225,0.0,0.0,99,0.00,CLR,,0.00,0.0,WeatherDisplay:10.37,2013-09-19 18:00:00,
2013-09-20 04:05:00,56.7,56.4,29.92,SW,225,1.0,2.0,99,0.00,CLR,,0.00,0.0,WeatherDisplay:10.37,2013-09-19 18:05:00,
2013-09-20 04:10:00,56.8,56.5,29.92,SW,225,1.0,2.0,99,0.00,CLR,,0.00,0.0,WeatherDisplay:10.37,2013-09-19 18:10:00,
2013-09-20 04:15:00,56.8,56.6,29.92,SW,225,0.0,2.0,99,0.00,CLR,,0.00,0.0,WeatherDisplay:10.37,2013-09-19 18:15:00,
2013-09-20 04:20:00,56.7,56.4,29.92,SW,225,0.0,0.0,99,0.00,CLR,,0.00,0.0,WeatherDisplay:10.37,2013-09-19 18:20:00,
2013-09-20 04:25:00,56.5,56.2,29.92,SW,225,0.0,0.0,99,0.00,CLR,,0.00,0.0,WeatherDisplay:10.37,2013-09-19 18:25:00,
2013-09-20 04:30:00,56.1,55.8,29.92,SW,225,0.0,0.0,99,0.00,CLR,,0.00,0.0,WeatherDisplay:10.37,2013-09-19 18:30:00,
2013-09-20 04:35:00,56.1,55.8,29.92,SW,215,2.0,3.0,99,0.00,CLR,,0.00,0.0,WeatherDisplay:10.37,2013-09-19 18:35:00,
2013-09-20 04:40:00,56.3,56.0,29.92,South,189,0.0,3.0,99,0.00,CLR,,0.00,0.0,WeatherDisplay:10.37,2013-09-19 18:40:00,
2013-09-20 04:45:00,56.2,55.9,29.92,South,178,0.0,2.0,99,0.00,CLR,,0.00,0.0,WeatherDisplay:10.37,2013-09-19 18:45:00,
2013-09-20 04:50:00,55.8,55.5,29.92,South,180,0.0,0.0,99,0.00,CLR,,0.00,0.0,WeatherDisplay:10.37,2013-09-19 18:50:00,
2013-09-20 04:55:00,55.6,55.3,29.92,South,180,0.0,0.0,99,0.00,CLR,,0.00,0.0,WeatherDisplay:10.37,2013-09-19 18:55:00,
2013-09-20 05:00:00,55.6,55.3,29.92,South,180,0.0,0.0,99,0.00,CLR,,0.00,0.0,WeatherDisplay:10.37,2013-09-19 19:00:00,
2013-09-20 05:05:00,55.6,55.3,29.93,SSE,155,0.0,0.0,99,0.00,CLR,,0.00,0.0,WeatherDisplay:10.37,2013-09-19 19:05:00,
2013-09-20 05:10:00,55.3,54.7,29.93,SSE,166,2.0,4.0,98,0.00,CLR,,0.00,0.0,WeatherDisplay:10.37,2013-09-19 19:10:00,
2013-09-20 05:15:00,55.2,54.4,29.93,South,181,0.0,3.0,97,0.00,CLR,,0.00,0.0,WeatherDisplay:10.37,2013-09-19 19:15:00,
2013-09-20 05:20:00,55.2,54.4,29.93,SSW,206,1.0,2.0,97,0.00,CLR,,0.00,0.0,WeatherDisplay:10.37,2013-09-19 19:20:00,
2013-09-20 05:25:00,55.0,54.2,29.94,SW,225,0.0,2.0,97,0.00,CLR,,0.00,0.0,WeatherDisplay:10.37,2013-09-19 19:25:00,
2013-09-20 05:30:00,55.0,54.2,29.94,SW,225,0.0,2.0,97,0.00,CLR,,0.00,0.0,WeatherDisplay:10.37,2013-09-19 19:30:00,
2013-09-20 05:35:00,55.2,54.4,29.94,SW,225,0.0,0.0,97,0.00,CLR,,0.00,0.0,WeatherDisplay:10.37,2013-09-19 19:35:00,
2013-09-20 05:40:00,54.9,54.0,29.94,SW,225,0.0,0.0,97,0.00,CLR,,0.00,0.0,WeatherDisplay:10.37,2013-09-19 19:40:00,
2013-09-20 05:45:00,54.7,53.8,29.94,SW,225,0.0,0.0,97,0.00,CLR,,0.00,0.0,WeatherDisplay:10.37,2013-09-19 19:45:00,
2013-09-20 05:50:00,54.5,53.7,29.94,SW,225,0.0,0.0,97,0.00,CLR,,0.00,0.0,WeatherDisplay:10.37,2013-09-19 19:50:00,
2013-09-20 05:55:00,54.3,53.5,29.94,SW,225,0.0,0.0,97,0.00,CLR,,0.00,0.0,WeatherDisplay:10.37,2013-09-19 19:55:00,
2013-09-20 06:00:00,54.3,53.5,29.94,SW,225,0.0,0.0,97,0.00,CLR,,0.00,0.0,WeatherDisplay:10.37,2013-09-19 20:00:00,
2013-09-20 06:05:00,54.3,53.5,29.95,SW,225,0.0,2.0,97,0.00,CLR,,0.00,0.0,WeatherDisplay:10.37,2013-09-19 20:05:00,
2013-09-20 06:10:00,54.1,53.3,29.95,SW,225,0.0,2.0,97,0.00,CLR,,0.00,1.3,WeatherDisplay:10.37,2013-09-19 20:10:00,
2013-09-20 06:15:00,53.8,52.9,29.95,SW,225,0.0,0.0,97,0.00,CLR,,0.00,5.4,WeatherDisplay:10.37,2013-09-19 20:15:00,
2013-09-20 06:20:00,53.8,52.9,29.96,SW,225,0.0,0.0,97,0.00,CLR,,0.00,12.0,WeatherDisplay:10.37,2013-09-19 20:20:00,
2013-09-20 06:25:00,54.2,53.4,29.96,SW,225,0.0,0.0,97,0.00,CLR,,0.00,17.5,WeatherDisplay:10.37,2013-09-19 20:25:00,
2013-09-20 06:30:00,55.0,54.2,29.96,SW,225,0.0,0.0,97,0.00,BKN,,0.00,29.2,WeatherDisplay:10.37,2013-09-19 20:30:00,
2013-09-20 06:35:00,55.7,55.4,29.97,SW,225,0.0,0.0,99,0.00,BKN,,0.00,37.9,WeatherDisplay:10.37,2013-09-19 20:35:00,
2013-09-20 06:40:00,56.6,56.3,29.97,SW,225,0.0,0.0,99,0.00,BKN,,0.00,46.0,WeatherDisplay:10.37,2013-09-19 20:40:00,
2013-09-20 06:45:00,57.7,57.5,29.97,SW,225,1.0,2.0,99,0.00,BKN,,0.00,61.7,WeatherDisplay:10.37,2013-09-19 20:45:00,
2013-09-20 06:50:00,58.1,57.8,29.97,SSW,210,0.0,1.0,99,0.00,BKN,,0.00,76.3,WeatherDisplay:10.37,2013-09-19 20:50:00,
2013-09-20 06:55:00,58.5,58.2,29.97,SSE,166,1.0,3.0,99,0.00,BKN,,0.00,98.3,WeatherDisplay:10.37,2013-09-19 20:55:00,
2013-09-20 07:05:00,60.3,59.1,29.98,South,174,0.0,0.0,96,0.00,SCT,,0.00,135.3,WeatherDisplay:10.37,2013-09-19 21:05:00,
2013-09-20 07:10:00,62.5,60.5,29.98,South,179,0.0,2.0,93,0.00,FEW,,0.00,155.1,WeatherDisplay:10.37,2013-09-19 21:10:00,
2013-09-20 07:15:00,63.8,60.5,29.98,SSE,155,0.0,2.0,89,0.00,CLR,,0.00,177.2,WeatherDisplay:10.37,2013-09-19 21:15:00,
2013-09-20 07:20:00,66.0,62.0,29.98,SE,135,0.0,0.0,87,0.00,CLR,,0.00,193.0,WeatherDisplay:10.37,2013-09-19 21:20:00,
2013-09-20 07:25:00,68.4,63.1,29.98,SE,135,0.0,0.0,83,0.00,CLR,,0.00,173.0,WeatherDisplay:10.37,2013-09-19 21:25:00,
2013-09-20 07:30:00,69.8,62.3,29.98,SE,135,0.0,0.0,77,0.00,CLR,,0.00,154.0,WeatherDisplay:10.37,2013-09-19 21:30:00,
2013-09-20 07:35:00,71.1,63.2,29.99,SE,135,0.0,2.0,76,0.00,CLR,,0.00,135.0,WeatherDisplay:10.37,2013-09-19 21:35:00,
2013-09-20 07:40:00,69.7,60.2,29.99,SSE,163,2.0,4.0,72,0.00,CLR,,0.00,116.0,WeatherDisplay:10.37,2013-09-19 21:40:00,
2013-09-20 07:50:00,68.9,60.6,29.99,SSE,151,2.0,4.0,75,0.00,CLR,,0.00,81.0,WeatherDisplay:10.37,2013-09-19 21:50:00,
2013-09-20 07:55:00,70.2,61.5,29.99,SE,137,1.0,3.0,74,0.00,CLR,,0.00,64.0,WeatherDisplay:10.37,2013-09-19 21:55:00,
2013-09-20 08:00:00,72.1,61.4,29.99,SE,135,1.0,3.0,69,0.00,CLR,,0.00,48.0,WeatherDisplay:10.37,2013-09-19 22:00:00,
2013-09-20 08:05:00,73.0,61.4,29.99,SSE,159,2.0,4.0,67,0.00,CLR,,0.00,32.0,WeatherDisplay:10.37,2013-09-19 22:05:00,
2013-09-20 08:10:00,72.7,59.8,29.99,South,174,1.0,4.0,64,0.00,CLR,,0.00,17.0,WeatherDisplay:10.37,2013-09-19 22:10:00,
2013-09-20 08:15:00,72.5,58.7,29.99,SSE,168,3.0,5.0,62,0.00,OVC,,0.00,526.4,WeatherDisplay:10.37,2013-09-19 22:15:00,
2013-09-20 08:20:00,72.1,58.4,30.00,SSW,201,2.0,5.0,62,0.00,OVC,,0.00,556.0,WeatherDisplay:10.37,2013-09-19 22:20:00,
2013-09-20 08:25:00,72.8,59.4,30.00,SW,225,1.0,4.0,63,0.00,OVC,,0.00,597.0,WeatherDisplay:10.37,2013-09-19 22:25:00,
2013-09-20 08:30:00,75.0,60.1,30.00,SW,225,1.0,3.0,60,0.00,OVC,,0.00,627.2,WeatherDisplay:10.37,2013-09-19 22:30:00,
2013-09-20 08:35:00,77.2,59.8,30.00,SW,225,0.0,3.0,55,0.00,OVC,,0.00,665.4,WeatherDisplay:10.37,2013-09-19 22:35:00,
2013-09-20 08:40:00,80.2,61.0,30.00,SW,225,0.0,2.0,52,0.00,OVC,,0.00,688.1,WeatherDisplay:10.37,2013-09-19 22:40:00,
2013-09-20 08:45:00,81.7,60.7,30.00,SSW,209,0.0,2.0,49,0.00,OVC,,0.00,727.7,WeatherDisplay:10.37,2013-09-19 22:45:00,
2013-09-20 08:50:00,82.9,60.0,30.00,South,185,1.0,2.0,46,0.00,OVC,,0.00,764.5,WeatherDisplay:10.37,2013-09-19 22:50:00,
2013-09-20 08:55:00,83.6,60.0,30.00,SSE,153,0.0,2.0,45,0.00,OVC,,0.00,789.4,WeatherDisplay:10.37,2013-09-19 22:55:00,
2013-09-20 09:00:00,85.3,60.9,30.00,East,80,0.0,2.0,44,0.00,OVC,,0.00,832.2,WeatherDisplay:10.37,2013-09-19 23:00:00,
2013-09-20 09:05:00,85.6,58.5,30.00,NNW,337,1.0,3.0,40,0.00,OVC,,0.00,857.7,WeatherDisplay:10.37,2013-09-19 23:05:00,
2013-09-20 09:10:00,85.6,58.5,30.00,NW,315,0.0,2.0,40,0.00,OVC,,0.00,889.5,WeatherDisplay:10.37,2013-09-19 23:10:00,
2013-09-20 09:15:00,86.5,55.6,30.00,NW,315,2.0,4.0,35,0.00,OVC,,0.00,926.6,WeatherDisplay:10.37,2013-09-19 23:15:00,
2013-09-20 09:20:00,85.6,56.3,30.00,NW,315,2.0,4.0,37,0.00,OVC,,0.00,947.2,WeatherDisplay:10.37,2013-09-19 23:20:00,
2013-09-20 09:25:00,85.9,54.3,30.00,NW,315,1.0,3.0,34,0.00,OVC,,0.00,974.3,WeatherDisplay:10.37,2013-09-19 23:25:00,
2013-09-20 09:30:00,86.9,55.2,30.00,NW,315,1.0,3.0,34,0.00,OVC,,0.00,1018.9,WeatherDisplay:10.37,2013-09-19 23:30:00,
2013-09-20 09:35:00,87.3,54.6,29.99,NW,315,1.0,4.0,33,0.00,OVC,,0.00,1042.2,WeatherDisplay:10.37,2013-09-19 23:35:00,
2013-09-20 09:40:00,86.9,46.8,29.99,NW,315,6.0,8.0,25,0.00,OVC,,0.00,1070.7,WeatherDisplay:10.37,2013-09-19 23:40:00,
2013-09-20 09:45:00,85.5,49.6,29.99,NW,315,2.0,8.0,29,0.00,OVC,,0.00,1091.1,WeatherDisplay:10.37,2013-09-19 23:45:00,
2013-09-20 09:50:00,86.4,50.3,29.99,NW,315,6.0,10.0,29,0.00,OVC,,0.00,1118.4,WeatherDisplay:10.37,2013-09-19 23:50:00,
2013-09-20 09:55:00,86.3,48.4,29.99,NNW,337,8.0,12.0,27,0.00,OVC,,0.00,1147.2,WeatherDisplay:10.37,2013-09-19 23:55:00,
2013-09-20 10:00:00,86.8,47.8,29.99,North,355,7.0,10.0,26,0.00,OVC,,0.00,1168.9,WeatherDisplay:10.37,2013-09-20 00:00:00,
2013-09-20 10:05:00,87.3,47.1,29.99,North,0,7.0,10.0,25,0.00,OVC,,0.00,1191.6,WeatherDisplay:10.37,2013-09-20 00:05:00,
2013-09-20 10:10:00,87.4,47.3,29.99,NNW,335,6.0,10.0,25,0.00,OVC,,0.00,1216.2,WeatherDisplay:10.37,2013-09-20 00:10:00,
2013-09-20 10:15:00,87.3,47.1,29.98,NW,315,5.0,10.0,25,0.00,OVC,,0.00,1237.6,WeatherDisplay:10.37,2013-09-20 00:15:00,
2013-09-20 10:20:00,87.8,48.7,29.98,NW,315,5.0,8.0,26,0.00,OVC,,0.00,1266.8,WeatherDisplay:10.37,2013-09-20 00:20:00,
2013-09-20 10:25:00,89.6,48.0,29.98,NW,315,5.0,8.0,24,0.00,OVC,,0.00,1292.8,WeatherDisplay:10.37,2013-09-20 00:25:00,
2013-09-20 10:30:00,90.0,47.2,29.98,NW,315,6.0,8.0,23,0.00,OVC,,0.00,1319.1,WeatherDisplay:10.37,2013-09-20 00:30:00,
2013-09-20 10:40:00,88.9,48.5,29.98,NW,315,3.0,8.0,25,0.00,OVC,,0.00,1348.5,WeatherDisplay:10.37,2013-09-20 00:40:00,
2013-09-20 10:45:00,90.0,44.8,29.98,NW,315,3.0,9.0,21,0.00,OVC,,0.00,1378.9,WeatherDisplay:10.37,2013-09-20 00:45:00,
2013-09-20 10:50:00,91.8,49.8,29.98,NW,315,6.0,8.0,24,0.00,OVC,,0.00,1405.2,WeatherDisplay:10.37,2013-09-20 00:50:00,
2013-09-20 10:55:00,92.2,51.3,29.97,NW,315,8.0,13.0,25,0.00,OVC,,0.00,1421.5,WeatherDisplay:10.37,2013-09-20 00:55:00,
2013-09-20 11:00:00,90.7,45.4,29.97,NW,315,2.0,13.0,21,0.00,OVC,,0.00,1426.9,WeatherDisplay:10.37,2013-09-20 01:00:00,
2013-09-20 11:05:00,90.2,45.0,29.97,NNW,327,6.0,11.0,21,0.00,OVC,,0.00,1434.3,WeatherDisplay:10.37,2013-09-20 01:05:00,
2013-09-20 11:10:00,90.7,44.1,29.96,NNW,336,5.0,9.0,20,0.00,OVC,,0.00,1456.8,WeatherDisplay:10.37,2013-09-20 01:10:00,
2013-09-20 11:15:00,92.4,50.4,29.96,NNW,338,6.0,10.0,24,0.00,OVC,,0.00,1477.7,WeatherDisplay:10.37,2013-09-20 01:15:00,
2013-09-20 11:20:00,91.3,47.1,29.96,NNW,338,2.0,10.0,22,0.00,OVC,,0.00,1479.7,WeatherDisplay:10.37,2013-09-20 01:20:00,
2013-09-20 11:25:00,91.0,46.9,29.96,NNW,340,5.0,11.0,22,0.00,OVC,,0.00,1486.2,WeatherDisplay:10.37,2013-09-20 01:25:00,
2013-09-20 11:30:00,92.5,51.6,29.95,NNW,343,6.0,8.0,25,0.00,OVC,,0.00,1498.9,WeatherDisplay:10.37,2013-09-20 01:30:00,
2013-09-20 11:40:00,92.2,51.3,29.95,NW,315,6.0,12.0,25,0.00,OVC,,0.00,1519.7,WeatherDisplay:10.37,2013-09-20 01:40:00,
2013-09-20 11:50:00,91.9,51.1,29.94,North,355,9.0,13.0,25,0.00,OVC,,0.00,1521.2,WeatherDisplay:10.37,2013-09-20 01:50:00,
2013-09-20 11:55:00,92.6,52.7,29.94,North,0,8.0,13.0,26,0.00,OVC,,0.00,1529.0,WeatherDisplay:10.37,2013-09-20 01:55:00,
2013-09-20 12:00:00,91.9,55.1,29.94,North,353,7.0,13.0,29,0.00,OVC,,0.00,1529.0,WeatherDisplay:10.37,2013-09-20 02:00:00,
2013-09-20 12:05:00,91.1,55.4,29.93,NNW,346,7.0,14.0,30,0.00,OVC,,0.00,1526.2,WeatherDisplay:10.37,2013-09-20 02:05:00,
2013-09-20 12:10:00,90.5,53.9,29.93,NNW,345,8.0,13.0,29,0.00,OVC,,0.00,1524.1,WeatherDisplay:10.37,2013-09-20 02:10:00,
2013-09-20 12:15:00,91.0,53.4,29.93,North,356,8.0,14.0,28,0.00,OVC,,0.00,1522.5,WeatherDisplay:10.37,2013-09-20 02:15:00,
2013-09-20 12:20:00,90.1,50.6,29.93,North,355,12.0,20.0,26,0.00,OVC,,0.00,1520.7,WeatherDisplay:10.37,2013-09-20 02:20:00,
2013-09-20 12:25:00,89.8,49.3,29.92,North,356,8.0,15.0,25,0.00,OVC,,0.00,1509.8,WeatherDisplay:10.37,2013-09-20 02:25:00,
2013-09-20 12:30:00,90.1,48.5,29.92,North,0,5.0,14.0,24,0.00,OVC,,0.00,1515.6,WeatherDisplay:10.37,2013-09-20 02:30:00,
2013-09-20 12:35:00,91.1,48.2,29.92,North,0,6.0,12.0,23,0.00,OVC,,0.00,1523.9,WeatherDisplay:10.37,2013-09-20 02:35:00,
2013-09-20 12:40:00,90.8,47.9,29.92,North,0,6.0,12.0,23,0.00,OVC,,0.00,1520.6,WeatherDisplay:10.37,2013-09-20 02:40:00,
2013-09-20 12:45:00,91.2,47.0,29.91,NNE,19,8.0,13.0,22,0.00,OVC,,0.00,1519.5,WeatherDisplay:10.37,2013-09-20 02:45:00,
2013-09-20 12:50:00,91.4,49.5,29.91,NE,35,6.0,13.0,24,0.00,OVC,,0.00,1513.7,WeatherDisplay:10.37,2013-09-20 02:50:00,
2013-09-20 12:55:00,92.1,50.1,29.91,ENE,69,9.0,15.0,24,0.00,OVC,,0.00,1513.7,WeatherDisplay:10.37,2013-09-20 02:55:00,
2013-09-20 13:00:00,91.1,47.0,29.91,SE,125,9.0,15.0,22,0.00,OVC,,0.00,1493.4,WeatherDisplay:10.37,2013-09-20 03:00:00,
2013-09-20 13:05:00,91.6,48.5,29.90,SE,135,3.0,13.0,23,0.00,OVC,,0.00,1500.2,WeatherDisplay:10.37,2013-09-20 03:05:00,
2013-09-20 13:10:00,92.1,46.6,29.91,SE,135,9.0,15.0,21,0.00,OVC,,0.00,1491.5,WeatherDisplay:10.37,2013-09-20 03:10:00,
2013-09-20 13:15:00,91.8,45.0,29.90,SE,135,9.0,14.0,20,0.00,OVC,,0.00,1477.6,WeatherDisplay:10.37,2013-09-20 03:15:00,
2013-09-20 13:20:00,92.4,46.8,29.90,SE,135,8.0,12.0,21,0.00,OVC,,0.00,1473.0,WeatherDisplay:10.37,2013-09-20 03:20:00,
2013-09-20 13:25:00,92.8,41.6,29.89,SE,135,8.0,13.0,17,0.00,OVC,,0.00,1461.3,WeatherDisplay:10.37,2013-09-20 03:25:00,
2013-09-20 13:30:00,92.8,43.1,29.90,SE,135,7.0,13.0,18,0.00,OVC,,0.00,1447.3,WeatherDisplay:10.37,2013-09-20 03:30:00,
2013-09-20 13:35:00,92.3,42.7,29.89,SE,135,8.0,13.0,18,0.00,OVC,,0.00,1440.8,WeatherDisplay:10.37,2013-09-20 03:35:00,
2013-09-20 13:40:00,92.4,41.3,29.89,SE,135,7.0,15.0,17,0.00,OVC,,0.00,1427.5,WeatherDisplay:10.37,2013-09-20 03:40:00,
2013-09-20 13:45:00,92.2,39.5,29.89,SE,135,8.0,15.0,16,0.00,OVC,,0.00,1404.8,WeatherDisplay:10.37,2013-09-20 03:45:00,
2013-09-20 13:50:00,91.9,37.7,29.89,SE,135,7.0,15.0,15,0.00,OVC,,0.00,1391.1,WeatherDisplay:10.37,2013-09-20 03:50:00,
2013-09-20 13:55:00,92.5,42.8,29.89,SE,135,9.0,14.0,18,0.00,OVC,,0.00,1374.3,WeatherDisplay:10.37,2013-09-20 03:55:00,
2013-09-20 14:00:00,92.8,50.7,29.88,SE,135,5.0,12.0,24,0.00,OVC,,0.00,1360.9,WeatherDisplay:10.37,2013-09-20 04:00:00,
2013-09-20 14:05:00,92.8,49.6,29.88,SE,135,7.0,15.0,23,0.00,OVC,,0.00,1346.7,WeatherDisplay:10.37,2013-09-20 04:05:00,
2013-09-20 14:10:00,92.8,51.8,29.88,SE,135,6.0,11.0,25,0.00,OVC,,0.00,1327.0,WeatherDisplay:10.37,2013-09-20 04:10:00,
2013-09-20 14:15:00,93.0,53.0,29.88,SE,135,10.0,18.0,26,0.00,OVC,,0.00,1303.8,WeatherDisplay:10.37,2013-09-20 04:15:00,
2013-09-20 14:20:00,92.8,52.9,29.88,SE,135,7.0,18.0,26,0.00,OVC,,0.00,1278.3,WeatherDisplay:10.37,2013-09-20 04:20:00,
2013-09-20 14:25:00,92.3,52.5,29.88,SE,135,10.0,17.0,26,0.00,OVC,,0.00,1252.0,WeatherDisplay:10.37,2013-09-20 04:25:00,
2013-09-20 14:30:00,92.1,52.3,29.87,SE,135,8.0,15.0,26,0.00,OVC,,0.00,1227.2,WeatherDisplay:10.37,2013-09-20 04:30:00,
2013-09-20 14:35:00,92.5,51.5,29.88,SE,135,7.0,13.0,25,0.00,OVC,,0.00,1207.6,WeatherDisplay:10.37,2013-09-20 04:35:00,
2013-09-20 14:40:00,92.3,51.4,29.87,SE,135,12.0,15.0,25,0.00,OVC,,0.00,1178.0,WeatherDisplay:10.37,2013-09-20 04:40:00,
2013-09-20 14:45:00,91.8,52.0,29.87,SE,135,8.0,15.0,26,0.00,OVC,,0.00,1148.1,WeatherDisplay:10.37,2013-09-20 04:45:00,
2013-09-20 14:50:00,91.8,50.9,29.87,SE,135,9.0,15.0,25,0.00,OVC,,0.00,1121.5,WeatherDisplay:10.37,2013-09-20 04:50:00,
2013-09-20 14:55:00,91.4,43.3,29.87,SE,132,8.0,15.0,19,0.00,OVC,,0.00,1099.8,WeatherDisplay:10.37,2013-09-20 04:55:00,
2013-09-20 15:00:00,92.4,48.1,29.87,SE,131,7.0,12.0,22,0.00,OVC,,0.00,1074.4,WeatherDisplay:10.37,2013-09-20 05:00:00,
2013-09-20 15:05:00,91.9,45.1,29.86,SE,135,7.0,14.0,20,0.00,OVC,,0.00,1050.9,WeatherDisplay:10.37,2013-09-20 05:05:00,
2013-09-20 15:10:00,92.2,42.6,29.87,SE,135,12.0,16.0,18,0.00,OVC,,0.00,1020.9,WeatherDisplay:10.37,2013-09-20 05:10:00,
2013-09-20 15:15:00,91.8,40.7,29.86,SE,135,7.0,16.0,17,0.00,OVC,,0.00,993.0,WeatherDisplay:10.37,2013-09-20 05:15:00,
2013-09-20 15:20:00,91.2,40.3,29.87,SE,135,8.0,14.0,17,0.00,OVC,,0.00,959.6,WeatherDisplay:10.37,2013-09-20 05:20:00,
2013-09-20 15:25:00,91.0,38.6,29.86,SE,135,10.0,15.0,16,0.00,OVC,,0.00,929.9,WeatherDisplay:10.37,2013-09-20 05:25:00,
2013-09-20 15:30:00,91.2,37.1,29.86,SE,135,10.0,15.0,15,0.00,OVC,,0.00,916.6,WeatherDisplay:10.37,2013-09-20 05:30:00,
2013-09-20 15:35:00,90.9,36.9,29.86,SE,135,9.0,15.0,15,0.00,OVC,,0.00,895.8,WeatherDisplay:10.37,2013-09-20 05:35:00,
2013-09-20 15:40:00,90.5,32.9,29.86,SE,135,9.0,17.0,13,0.00,OVC,,0.00,886.7,WeatherDisplay:10.37,2013-09-20 05:40:00,
2013-09-20 15:45:00,90.3,38.0,29.86,SE,135,13.0,17.0,16,0.00,OVC,,0.00,867.1,WeatherDisplay:10.37,2013-09-20 05:45:00,
2013-09-20 15:50:00,90.1,42.3,29.86,SE,135,9.0,15.0,19,0.00,OVC,,0.00,834.3,WeatherDisplay:10.37,2013-09-20 05:50:00,
2013-09-20 15:55:00,90.3,42.4,29.86,SE,135,10.0,16.0,19,0.00,OVC,,0.00,793.0,WeatherDisplay:10.37,2013-09-20 05:55:00,
2013-09-20 16:00:00,90.1,39.4,29.86,SE,135,8.0,15.0,17,0.00,OVC,,0.00,743.0,WeatherDisplay:10.37,2013-09-20 06:00:00,
2013-09-20 16:05:00,90.2,32.7,29.86,SE,135,8.0,15.0,13,0.00,OVC,,0.00,706.0,WeatherDisplay:10.37,2013-09-20 06:05:00,
2013-09-20 16:10:00,90.7,31.1,29.85,SE,135,8.0,14.0,12,0.00,OVC,,0.00,656.4,WeatherDisplay:10.37,2013-09-20 06:10:00,
2013-09-20 16:15:00,90.6,28.9,29.86,SE,135,10.0,15.0,11,0.00,OVC,,0.00,608.7,WeatherDisplay:10.37,2013-09-20 06:15:00,
2013-09-20 16:20:00,90.4,28.7,29.86,SE,135,7.0,13.0,11,0.00,OVC,,0.00,575.2,WeatherDisplay:10.37,2013-09-20 06:20:00,
2013-09-20 16:25:00,90.3,28.7,29.86,SE,135,10.0,16.0,11,0.00,OVC,,0.00,532.0,WeatherDisplay:10.37,2013-09-20 06:25:00,
2013-09-20 16:30:00,89.8,30.4,29.86,SE,135,6.0,16.0,12,0.00,OVC,,0.00,490.4,WeatherDisplay:10.37,2013-09-20 06:30:00,
2013-09-20 16:35:00,89.9,39.2,29.86,SE,135,7.0,13.0,17,0.00,OVC,,0.00,443.1,WeatherDisplay:10.37,2013-09-20 06:35:00,
2013-09-20 16:40:00,89.5,41.8,29.86,SE,135,9.0,13.0,19,0.00,OVC,,0.00,386.0,WeatherDisplay:10.37,2013-09-20 06:40:00,
2013-09-20 16:45:00,89.2,45.4,29.86,SE,135,8.0,13.0,22,0.00,OVC,,0.00,345.3,WeatherDisplay:10.37,2013-09-20 06:45:00,
2013-09-20 16:50:00,88.9,46.3,29.87,SE,135,7.0,14.0,23,0.00,OVC,,0.00,311.1,WeatherDisplay:10.37,2013-09-20 06:50:00,
2013-09-20 16:55:00,88.5,46.0,29.86,SE,135,6.0,13.0,23,0.00,OVC,,0.00,265.1,WeatherDisplay:10.37,2013-09-20 06:55:00,
2013-09-20 17:00:00,88.2,45.7,29.86,SE,135,8.0,15.0,23,0.00,CLR,,0.00,245.5,WeatherDisplay:10.37,2013-09-20 07:00:00,
2013-09-20 17:05:00,87.8,45.4,29.87,SE,135,6.0,12.0,23,0.00,CLR,,0.00,223.6,WeatherDisplay:10.37,2013-09-20 07:05:00,
2013-09-20 17:10:00,87.4,45.1,29.87,SE,135,7.0,14.0,23,0.00,CLR,,0.00,191.1,WeatherDisplay:10.37,2013-09-20 07:10:00,
2013-09-20 17:15:00,86.6,45.5,29.87,SE,135,7.0,12.0,24,0.00,CLR,,0.00,169.5,WeatherDisplay:10.37,2013-09-20 07:15:00,
2013-09-20 17:20:00,86.0,49.1,29.86,SE,135,7.0,12.0,28,0.00,CLR,,0.00,160.1,WeatherDisplay:10.37,2013-09-20 07:20:00,
2013-09-20 17:25:00,85.9,50.0,29.86,SE,135,8.0,13.0,29,0.00,CLR,,0.00,148.7,WeatherDisplay:10.37,2013-09-20 07:25:00,
2013-09-20 17:30:00,85.5,46.7,29.87,SE,135,9.0,15.0,26,0.00,CLR,,0.00,125.5,WeatherDisplay:10.37,2013-09-20 07:30:00,
2013-09-20 17:35:00,85.3,47.5,29.87,SE,135,6.0,10.0,27,0.00,CLR,,0.00,116.6,WeatherDisplay:10.37,2013-09-20 07:35:00,
2013-09-20 17:40:00,85.1,49.3,29.87,SE,135,5.0,12.0,29,0.00,CLR,,0.00,101.3,WeatherDisplay:10.37,2013-09-20 07:40:00,
2013-09-20 17:45:00,84.7,52.4,29.88,SE,135,6.0,10.0,33,0.00,CLR,,0.00,84.3,WeatherDisplay:10.37,2013-09-20 07:45:00,
2013-09-20 17:50:00,83.9,54.9,29.88,SE,135,6.0,11.0,37,0.00,CLR,,0.00,55.9,WeatherDisplay:10.37,2013-09-20 07:50:00,
2013-09-20 17:55:00,83.0,56.2,29.88,SE,135,6.0,11.0,40,0.00,CLR,,0.00,35.5,WeatherDisplay:10.37,2013-09-20 07:55:00,
2013-09-20 18:00:00,82.0,56.6,29.88,SE,135,3.0,11.0,42,0.00,CLR,,0.00,26.0,WeatherDisplay:10.37,2013-09-20 08:00:00,
2013-09-20 18:05:00,81.3,57.3,29.88,SE,135,8.0,10.0,44,0.00,CLR,,0.00,16.6,WeatherDisplay:10.37,2013-09-20 08:05:00,
2013-09-20 18:10:00,80.6,59.1,29.88,SE,135,5.0,11.0,48,0.00,CLR,,0.00,7.8,WeatherDisplay:10.37,2013-09-20 08:10:00,
2013-09-20 18:15:00,79.6,61.5,29.88,SE,135,5.0,10.0,54,0.00,CLR,,0.00,2.2,WeatherDisplay:10.37,2013-09-20 08:15:00,
2013-09-20 18:20:00,78.6,63.1,29.89,SE,135,6.0,8.0,59,0.00,CLR,,0.00,0.0,WeatherDisplay:10.37,2013-09-20 08:20:00,
2013-09-20 18:25:00,78.1,63.5,29.89,SE,135,3.0,7.0,61,0.00,CLR,,0.00,0.0,WeatherDisplay:10.37,2013-09-20 08:25:00,
2013-09-20 18:30:00,77.4,62.9,29.89,SE,135,5.0,8.0,61,0.00,CLR,,0.00,0.0,WeatherDisplay:10.37,2013-09-20 08:30:00,
2013-09-20 18:35:00,76.8,62.8,29.89,SE,135,6.0,8.0,62,0.00,CLR,,0.00,0.0,WeatherDisplay:10.37,2013-09-20 08:35:00,
2013-09-20 18:40:00,76.5,60.6,29.89,SE,135,5.0,7.0,58,0.00,CLR,,0.00,0.0,WeatherDisplay:10.37,2013-09-20 08:40:00,
2013-09-20 18:45:00,75.8,58.5,29.90,SE,135,3.0,6.0,55,0.00,CLR,,0.00,0.0,WeatherDisplay:10.37,2013-09-20 08:45:00,
2013-09-20 18:50:00,75.2,57.4,29.90,SE,135,3.0,6.0,54,0.00,CLR,,0.00,0.0,WeatherDisplay:10.37,2013-09-20 08:50:00,
2013-09-20 18:55:00,74.8,56.0,29.90,SE,135,3.0,7.0,52,0.00,CLR,,0.00,0.0,WeatherDisplay:10.37,2013-09-20 08:55:00,
2013-09-20 19:00:00,74.7,55.9,29.90,SE,135,3.0,6.0,52,0.00,CLR,,0.00,0.0,WeatherDisplay:10.37,2013-09-20 09:00:00,
2013-09-20 19:05:00,74.5,55.2,29.91,SE,135,3.0,5.0,51,0.00,CLR,,0.00,0.0,WeatherDisplay:10.37,2013-09-20 09:05:00,
2013-09-20 19:10:00,74.3,55.0,29.91,SE,135,3.0,6.0,51,0.00,CLR,,0.00,0.0,WeatherDisplay:10.37,2013-09-20 09:10:00,
2013-09-20 19:15:00,74.1,54.3,29.91,SE,135,3.0,6.0,50,0.00,CLR,,0.00,0.0,WeatherDisplay:10.37,2013-09-20 09:15:00,
2013-09-20 19:20:00,73.8,55.0,29.91,SE,135,3.0,6.0,52,0.00,CLR,,0.00,0.0,WeatherDisplay:10.37,2013-09-20 09:20:00,
2013-09-20 19:25:00,73.0,55.4,29.91,SE,135,3.0,6.0,54,0.00,CLR,,0.00,0.0,WeatherDisplay:10.37,2013-09-20 09:25:00,
2013-09-20 19:30:00,72.5,55.4,29.91,SE,135,3.0,6.0,55,0.00,CLR,,0.00,0.0,WeatherDisplay:10.37,2013-09-20 09:30:00,
2013-09-20 19:35:00,72.3,54.7,29.92,SE,135,3.0,6.0,54,0.00,CLR,,0.00,0.0,WeatherDisplay:10.37,2013-09-20 09:35:00,
2013-09-20 19:40:00,72.4,54.8,29.92,SE,135,5.0,7.0,54,0.00,CLR,,0.00,0.0,WeatherDisplay:10.37,2013-09-20 09:40:00,
2013-09-20 19:45:00,72.3,54.2,29.92,SE,135,3.0,6.0,53,0.00,CLR,,0.00,0.0,WeatherDisplay:10.37,2013-09-20 09:45:00,
2013-09-20 19:50:00,72.1,54.1,29.92,SE,135,5.0,6.0,53,0.00,CLR,,0.00,0.0,WeatherDisplay:10.37,2013-09-20 09:50:00,
2013-09-20 19:55:00,71.8,54.2,29.92,SE,135,3.0,6.0,54,0.00,CLR,,0.00,0.0,WeatherDisplay:10.37,2013-09-20 09:55:00,
2013-09-20 20:00:00,71.2,55.2,29.92,SE,135,3.0,6.0,57,0.00,CLR,,0.00,0.0,WeatherDisplay:10.37,2013-09-20 10:00:00,
2013-09-20 20:05:00,70.7,55.7,29.93,SE,135,3.0,6.0,59,0.00,CLR,,0.00,0.0,WeatherDisplay:10.37,2013-09-20 10:05:00,
2013-09-20 20:10:00,70.5,56.4,29.93,SE,135,3.0,6.0,61,0.00,CLR,,0.00,0.0,WeatherDisplay:10.37,2013-09-20 10:10:00,
2013-09-20 20:15:00,70.7,56.6,29.93,SE,135,3.0,6.0,61,0.00,CLR,,0.00,0.0,WeatherDisplay:10.37,2013-09-20 10:15:00,
2013-09-20 20:20:00,70.5,56.9,29.93,SE,135,2.0,5.0,62,0.00,CLR,,0.00,0.0,WeatherDisplay:10.37,2013-09-20 10:20:00,
2013-09-20 20:25:00,69.8,56.7,29.93,SE,135,2.0,3.0,63,0.00,CLR,,0.00,0.0,WeatherDisplay:10.37,2013-09-20 10:25:00,
2013-09-20 20:30:00,69.0,56.8,29.93,SE,135,1.0,3.0,65,0.00,CLR,,0.00,0.0,WeatherDisplay:10.37,2013-09-20 10:30:00,
2013-09-20 20:35:00,67.9,56.9,29.93,SE,135,1.0,2.0,68,0.00,CLR,,0.00,0.0,WeatherDisplay:10.37,2013-09-20 10:35:00,
2013-09-20 20:40:00,67.5,56.9,29.93,SE,135,0.0,2.0,69,0.00,CLR,,0.00,0.0,WeatherDisplay:10.37,2013-09-20 10:40:00,
2013-09-20 20:45:00,67.3,56.4,29.93,SE,135,0.0,0.0,68,0.00,CLR,,0.00,0.0,WeatherDisplay:10.37,2013-09-20 10:45:00,
2013-09-20 20:50:00,67.1,56.6,29.93,SE,135,0.0,0.0,69,0.00,CLR,,0.00,0.0,WeatherDisplay:10.37,2013-09-20 10:50:00,
2013-09-20 20:55:00,66.9,56.8,29.94,SE,135,0.0,0.0,70,0.00,CLR,,0.00,0.0,WeatherDisplay:10.37,2013-09-20 10:55:00,
2013-09-20 21:00:00,66.0,56.7,29.94,SE,135,0.0,0.0,72,0.00,CLR,,0.00,0.0,WeatherDisplay:10.37,2013-09-20 11:00:00,
2013-09-20 21:05:00,65.7,56.8,29.94,SE,135,0.0,0.0,73,0.00,CLR,,0.00,0.0,WeatherDisplay:10.37,2013-09-20 11:05:00,
2013-09-20 21:10:00,65.3,56.8,29.94,SE,135,0.0,0.0,74,0.00,CLR,,0.00,0.0,WeatherDisplay:10.37,2013-09-20 11:10:00,
2013-09-20 21:15:00,65.0,56.9,29.94,SE,135,0.0,0.0,75,0.00,CLR,,0.00,0.0,WeatherDisplay:10.37,2013-09-20 11:15:00,
2013-09-20 21:20:00,64.6,56.8,29.94,SE,135,0.0,0.0,76,0.00,CLR,,0.00,0.0,WeatherDisplay:10.37,2013-09-20 11:20:00,
2013-09-20 21:25:00,64.4,56.7,29.94,SE,135,0.0,0.0,76,0.00,CLR,,0.00,0.0,WeatherDisplay:10.37,2013-09-20 11:25:00,
2013-09-20 21:30:00,64.4,56.7,29.94,SE,135,0.0,0.0,76,0.00,CLR,,0.00,0.0,WeatherDisplay:10.37,2013-09-20 11:30:00,
2013-09-20 21:35:00,64.0,57.0,29.94,SE,135,0.0,0.0,78,0.00,CLR,,0.00,0.0,WeatherDisplay:10.37,2013-09-20 11:35:00,
2013-09-20 21:40:00,64.0,57.0,29.94,SE,135,0.0,0.0,78,0.00,CLR,,0.00,0.0,WeatherDisplay:10.37,2013-09-20 11:40:00,
2013-09-20 21:45:00,63.8,57.2,29.94,SE,135,0.0,0.0,79,0.00,CLR,,0.00,0.0,WeatherDisplay:10.37,2013-09-20 11:45:00,
2013-09-20 21:50:00,63.5,56.9,29.94,SE,135,0.0,0.0,79,0.00,CLR,,0.00,0.0,WeatherDisplay:10.37,2013-09-20 11:50:00,
2013-09-20 21:55:00,63.1,56.5,29.94,SE,135,0.0,0.0,79,0.00,CLR,,0.00,0.0,WeatherDisplay:10.37,2013-09-20 11:55:00,
2013-09-20 22:00:00,63.0,56.3,29.94,SE,135,0.0,0.0,79,0.00,CLR,,0.00,0.0,WeatherDisplay:10.37,2013-09-20 12:00:00,
2013-09-20 22:05:00,62.5,56.2,29.94,SE,135,0.0,0.0,80,0.00,CLR,,0.00,0.0,WeatherDisplay:10.37,2013-09-20 12:05:00,
2013-09-20 22:10:00,62.2,56.0,29.94,SE,135,0.0,0.0,80,0.00,CLR,,0.00,0.0,WeatherDisplay:10.37,2013-09-20 12:10:00,
2013-09-20 22:15:00,62.4,56.2,29.94,SE,135,0.0,0.0,80,0.00,CLR,,0.00,0.0,WeatherDisplay:10.37,2013-09-20 12:15:00,
2013-09-20 22:20:00,62.4,56.2,29.94,SE,135,0.0,0.0,80,0.00,CLR,,0.00,0.0,WeatherDisplay:10.37,2013-09-20 12:20:00,
2013-09-20 22:25:00,62.0,56.1,29.94,SE,135,0.0,0.0,81,0.00,CLR,,0.00,0.0,WeatherDisplay:10.37,2013-09-20 12:25:00,
2013-09-20 22:30:00,61.7,55.8,29.94,SE,135,0.0,0.0,81,0.00,CLR,,0.00,0.0,WeatherDisplay:10.37,2013-09-20 12:30:00,
2013-09-20 22:35:00,61.3,55.5,29.94,SE,135,0.0,0.0,81,0.00,CLR,,0.00,0.0,WeatherDisplay:10.37,2013-09-20 12:35:00,
2013-09-20 22:40:00,61.3,55.8,29.94,SE,135,0.0,0.0,82,0.00,CLR,,0.00,0.0,WeatherDisplay:10.37,2013-09-20 12:40:00,
2013-09-20 22:45:00,61.2,56.3,29.94,SE,135,0.0,1.0,84,0.00,CLR,,0.00,0.0,WeatherDisplay:10.37,2013-09-20 12:45:00,
2013-09-20 22:50:00,61.0,56.1,29.94,SE,135,0.0,0.0,84,0.00,CLR,,0.00,0.0,WeatherDisplay:10.37,2013-09-20 12:50:00,
2013-09-20 22:55:00,60.6,56.1,29.95,SE,135,0.0,1.0,85,0.00,CLR,,0.00,0.0,WeatherDisplay:10.37,2013-09-20 12:55:00,
2013-09-20 23:00:00,60.3,55.7,29.94,SE,135,0.0,1.0,85,0.00,CLR,,0.00,0.0,WeatherDisplay:10.37,2013-09-20 13:00:00,
2013-09-20 23:05:00,60.3,56.1,29.94,SE,135,1.0,3.0,86,0.00,CLR,,0.00,0.0,WeatherDisplay:10.37,2013-09-20 13:05:00,
2013-09-20 23:10:00,59.9,55.7,29.94,SE,135,0.0,2.0,86,0.00,CLR,,0.00,0.0,WeatherDisplay:10.37,2013-09-20 13:10:00,
2013-09-20 23:15:00,59.7,55.5,29.94,SE,135,0.0,0.0,86,0.00,CLR,,0.00,0.0,WeatherDisplay:10.37,2013-09-20 13:15:00,
2013-09-20 23:20:00,59.9,56.0,29.94,SE,135,0.0,0.0,87,0.00,CLR,,0.00,0.0,WeatherDisplay:10.37,2013-09-20 13:20:00,
2013-09-20 23:25:00,60.1,56.2,29.94,SE,135,0.0,0.0,87,0.00,CLR,,0.00,0.0,WeatherDisplay:10.37,2013-09-20 13:25:00,
2013-09-20 23:30:00,59.9,56.0,29.94,SE,135,1.0,2.0,87,0.00,CLR,,0.00,0.0,WeatherDisplay:10.37,2013-09-20 13:30:00,
2013-09-20 23:35:00,59.9,56.3,29.93,SE,135,1.0,3.0,88,0.00,CLR,,0.00,0.0,WeatherDisplay:10.37,2013-09-20 13:35:00,
2013-09-20 23:40:00,59.7,56.5,29.93,SE,135,2.0,3.0,89,0.00,CLR,,0.00,0.0,WeatherDisplay:10.37,2013-09-20 13:40:00,
2013-09-20 23:45:00,59.7,56.5,29.93,SE,135,0.0,3.0,89,0.00,CLR,,0.00,0.0,WeatherDisplay:10.37,2013-09-20 13:45:00,
2013-09-20 23:50:00,59.3,55.8,29.94,SE,135,0.0,1.0,88,0.00,CLR,,0.00,0.0,WeatherDisplay:10.37,2013-09-20 13:50:00,
2013-09-20 23:55:00,59.0,55.4,29.93,SE,135,0.0,1.0,88,0.00,CLR,,0.00,0.0,WeatherDisplay:10.37,2013-09-20 13:55:00,